Location: Altenhof
(50.2418°N, 10.8789°E)
Time: 19:03:49
(UTC+00:00)

STARLINK-1130 (DARKSAT) - Pass Details

Date: 18 February 2020
Orbit: 548 x 551 km, 53.0° (Epoch: 06 April)

Event Time Altitude Azimuth Distance (km) Brightness Sun altitude
Exits shadow 04:17:14 - 184° (S) 2,275 6.7 -20.7°
Reaches altitude 10° 04:18:50 10° 169° (S) 1,827 6.3 -20.5°
Drops below altitude 10° 04:23:48 10° 96° (E) 1,836 7.5 -19.7°
Enters shadow 05:21:42 -69° 243° (WSW) 12,479 10.4 -10.4°
Maximum altitude 06:00:18 61° 151° (SSE) 632 4.2 -4.4°
